STARLINK-37590, 69838

Orbit data source: Space-Track

STARLINK-37590, 69838 is a payload satellite owned by SpaceX/Seattle (US) in LEO that was launched on Sun, 05 Jul 2026 UTC via an FALCON 9 launch vehicle from the Air Force Eastern Test Range (AFETR). Payload-class satellites include a variety of spacecraft equipped with specific instruments for various scientific and technological missions. These include communications satellites like Starlink; space stations such as the ISS; scientific satellites like the Hubble; Earth observation satellites from companies like Planet Labs, Umbra, and HawkEye 360; GPS; miniature CubeSats for education and research; and military/defense satellites.

Loading next visibility...
Identifier
69838, 2026-154V
Orbit
LEO
Country
Flag of USUS
Related business
Manufacturer
SpaceX/Seattle
Mission
Operational spacecraft
Bus & Motor
STARLINK V2MO, Unknown motor
Mass
575 kg wet, ~530 kg dry
Launch date (UTC)
2026-07-05 (1 month ago)
Launch vehicle
FALCON 9
Launch site
Air Force Eastern Test Range (AFETR)
Object type
Payload
Rocket body
Debris
Shape & HBR
BOX + PAN, 17.7 m
Radar Cross Section
Large (>1 m²)

Expand to show TLE details & history
Last TLE update: 12 hours ago

TLE from 12 hours ago
0 STARLINK-37590
1 69838U 26154V   26228.58335648 -.02230315  00000-0 -58264-1 0  9998
2 69838  53.1595 134.7924 0000962 115.6375 103.5445 15.41586028  5860
Epoch: 2026-08-16T14:00Z
TLE epoch observation values (Epoch: 2026-08-16T14:00:01.999Z)
Latitude
-30.58802°
Longitude
165.93613°
Altitude
450.952 km
Speed
7.642 km/s
True Right ascension
22h 43m 41s
True Declination
-30° 25' 51"
Sunlit
Object was in full shadow at epoch
Visualization orbit readout
Latitude
Unknown
Longitude
Unknown
Altitude
Unknown
Speed
Unknown
Apparent Right ascension
Unknown
Apparent Declination
Unknown
Sunlit
N/A
Visualization observer readout
Local Sidereal Time
16:20:10
Azimuth
Unknown
Elevation
Unknown
Doppler factor
Unknown
Orbital elements
Apogee altitude
442.342 km
Perigee altitude
441.03 km
Semi-major axis
6,819.823 km
Eccentricity
0.0001
Inclination
53.1595°
RAAN
134.7924°
Arg. of periapsis
115.6375°
True anomaly
103.55522°
Mean anomaly
103.5445°
Eccentric anomaly
103.54986°
Mean motion
3.85375 °/min
Orbital period
93.42 mins
BSTAR
-0.058264
Loading maneuver chart data...
Computing Atmospheric mass density...
Loading historical data...
Loading historical data...
Loading historical data...
Loading historical data...
Loading historical data...
Loading historical data...
Loading historical data...

Documentation

Showing up to 5 results
|